Weather History for Pompano Beach, FL

Change the Weather History Date:

Tuesday, May 13, 2014

  Actual Average Record
Temperature  
Mean Temperature 80 °F -  
Max Temperature 84 °F 86 °F 95 °F (1971)
Min Temperature 75 °F 69 °F 59 °F (1977)
Cooling Degree Days 14    
Growing Degree Days 30 (Base 50)    
Moisture  
Dew Point 73 °F    
Average Humidity 79    
Maximum Humidity 88    
Minimum Humidity 69    
Precipitation  
Precipitation 0.27 in - - ()
Sea Level Pressure  
Sea Level Pressure 30.02 in    
Wind  
Wind Speed 15 mph (East)    
Max Wind Speed 20 mph    
Max Gust Speed 34 mph    
Visibility 8 miles    
Events Rain    
Averages and records for this station are not official NWS values.
T = Trace of Precipitation, MM = Missing Value Source: NWS Daily Summary

Daily Weather History Graph

Daily Weather History Graph

Search for Another Location

Airport:

Trip Planner

Search our weather history database for the weather conditions in past years. The results will help you decide how hot, cold, wet, or windy it might be!

Date:

Astronomy

May. 13, 2014 Rise Set
Actual Time 6:35 AM EDT 7:58 PM EDT
Civil Twilight 6:10 AM EDT 8:23 PM EDT
Nautical Twilight 5:40 AM EDT 8:53 PM EDT
Astronomical Twilight 5:09 AM EDT 9:24 PM EDT
Moon 7:05 PM EDT (5/13) 5:41 AM EDT (5/13)
Length of Visible Light 14h 13m
Length of Day
13h 23m
Waxing Gibbous, 98% of the Moon is Illuminated
May 13
Waxing Gibbous
May 14
Full
May 21
Last Quarter
May 28
New
Jun 5
First Quarter

Hourly Weather History & Observations

Time (EDT) Temp. Heat Index Dew Point Humidity Pressure Visibility Wind Dir Wind Speed Gust Speed Precip Events Conditions
12:53 AM 79.0 °F - 70.0 °F 74% 30.04 in 9.0 mi East 16.1 mph 23.0 mph N/A   Partly Cloudy
2:53 AM 79.0 °F - 70.0 °F 74% 30.00 in 9.0 mi East 16.1 mph - N/A   Scattered Clouds
3:53 AM 79.0 °F - 71.1 °F 77% 29.99 in 9.0 mi East 17.3 mph 24.2 mph N/A   Mostly Cloudy
4:53 AM 80.1 °F 83.8 °F 72.0 °F 76% 29.99 in 9.0 mi East 17.3 mph - N/A   Scattered Clouds
5:18 AM 75.0 °F - 71.1 °F 87% 30.00 in 1.8 mi East 17.3 mph 34.5 mph 0.06 in Rain Heavy Rain
5:27 AM 75.0 °F - 71.1 °F 87% 30.00 in 2.0 mi East 10.4 mph 21.9 mph 0.08 in Rain Rain
5:36 AM 77.0 °F - 73.0 °F 88% 29.99 in 6.0 mi East 15.0 mph - 0.09 in Rain Light Rain
5:53 AM 77.0 °F - 73.0 °F 88% 30.00 in 8.0 mi ENE 15.0 mph - 0.09 in   Scattered Clouds
6:53 AM 78.1 °F - 73.9 °F 87% 30.01 in 8.0 mi East 16.1 mph - 0.00 in   Mostly Cloudy
7:53 AM 79.0 °F - 73.0 °F 82% 30.04 in 7.0 mi ENE 16.1 mph 23.0 mph N/A   Mostly Cloudy
9:53 AM 80.1 °F 84.5 °F 73.9 °F 81% 30.06 in 8.0 mi ENE 13.8 mph - 0.00 in   Scattered Clouds
10:21 AM 78.1 °F - 73.0 °F 84% 30.06 in 1.8 mi ENE 12.7 mph 27.6 mph 0.05 in Rain Rain
10:53 AM 81.0 °F 86.7 °F 75.0 °F 82% 30.06 in 8.0 mi East 11.5 mph - 0.05 in   Scattered Clouds
12:53 PM 78.1 °F - 73.0 °F 84% 30.07 in 5.0 mi ENE 11.5 mph - 0.03 in Rain Light Rain
1:21 PM 79.0 °F - 75.0 °F 88% 30.06 in 10.0 mi East 8.1 mph - 0.09 in   Mostly Cloudy
1:53 PM 80.1 °F 85.1 °F 75.0 °F 85% 30.06 in 7.0 mi East 11.5 mph 20.7 mph 0.09 in Rain Light Rain
2:53 PM 84.0 °F 90.2 °F 73.0 °F 69% 30.03 in 10.0 mi East 15.0 mph - 0.00 in   Clear
3:53 PM 84.0 °F 90.2 °F 73.0 °F 69% 30.02 in 10.0 mi East 16.1 mph - N/A   Partly Cloudy
4:53 PM 84.0 °F 91.2 °F 73.9 °F 72% 30.01 in 10.0 mi East 17.3 mph - N/A   Clear
5:53 PM 82.9 °F 88.8 °F 73.0 °F 72% 30.00 in 10.0 mi East 15.0 mph - N/A   Partly Cloudy
6:53 PM 82.9 °F 88.0 °F 72.0 °F 69% 30.01 in 10.0 mi East 17.3 mph 25.3 mph N/A   Clear
7:53 PM 81.0 °F 85.8 °F 73.0 °F 77% 30.01 in 9.0 mi East 13.8 mph - N/A   Scattered Clouds
8:53 PM 78.1 °F - 73.0 °F 84% 30.01 in 8.0 mi East 15.0 mph - 0.01 in Rain Light Rain
9:53 PM 80.1 °F 83.8 °F 72.0 °F 76% 30.02 in 10.0 mi ESE 17.3 mph - 0.00 in   Partly Cloudy
10:53 PM 80.1 °F 83.8 °F 72.0 °F 76% 30.05 in 10.0 mi East 19.6 mph 24.2 mph N/A   Partly Cloudy
11:53 PM 80.1 °F 83.8 °F 72.0 °F 76% 30.05 in 10.0 mi East 13.8 mph - N/A   Clear